Home   Weather   Meschede   Past weeks

Flag for Germany Past Weather in Meschede, North Rhine-Westphalia, Germany — Yesterday and Last 2 Weeks

Now
36 °F

Sunny.


Feels Like: 33 °F
Forecast: 8 / 29 °F
Wind: 3 mph from Northeast

Location: Dortmund / Wickede

Current Time: Jan 21, 2017 at 2:27:47 pm

Latest Report: Jan 21, 2017 at 1:50 pm


Visibility: 10 mi

Pressure: 30.39 "Hg

Humidity: 65%

Dew Point: 25 °F

Location of MeschedeLocation

Past Weather in Meschede — Graph

°F

Meschede Temperature Yesterday

Maximum temperature yesterday: 36 °F (at 1:50 pm)
Minimum temperature yesterday: 19 °F (at 5:50 am)
Average temperature yesterday: 30 °F

High & Low Weather Summary for the Past Weeks

 TemperatureHumidityPressure
High43 °F (Jan 11, 2:20 pm)100% (Jan 8, 6:20 am)30.69 "Hg (Jan 8, 6:20 am)
Low19 °F (Jan 6, 6:20 pm)41% (Jan 20, 2:20 pm)29.06 "Hg (Jan 13, 5:20 am)
Average31 °F81%30.19 "Hg
* Reported Jan 6 1:20 pm — Jan 21 1:20 pm, Meschede, Weather by CustomWeather, © 2017

Note: Actual official high and low records may vary slightly from our data, if they occured in-between our weather recording intervals... More about our weather records

Advertising

Meschede Weather History for the Previous 24 Hours

Scroll right to see more
 ConditionsComfort  
Time TempWeatherWind HumidityBarometerVisibility
1:20 pm
Sat, Jan 21
36 °FSunny.5 mph65%30.39 "Hg10 mi
12:50 pm34 °FSunny.3 mph70%30.39 "Hg10 mi
12:20 pm32 °FSunny.3 mph75%30.39 "Hg10 mi
11:50 am32 °FSunny.3 mph75%30.42 "Hg10 mi
11:20 am30 °FSunny.2 mph75%30.42 "Hg10 mi
10:50 am28 °FSunny.2 mph80%30.42 "Hg10 mi
10:20 am28 °FSunny.No wind80%30.42 "Hg10 mi
9:50 am27 °FSunny.3 mph86%30.42 "Hg10 mi
9:20 am25 °FSunny.3 mph86%30.42 "Hg10 mi
8:50 am23 °FPassing clouds.5 mph86%30.42 "HgN/A
8:20 am23 °FClear.3 mph86%30.42 "Hg10 mi
7:50 am23 °FClear.3 mph93%30.42 "Hg10 mi
7:20 am23 °FClear.3 mph86%30.42 "Hg10 mi
6:50 am23 °FClear.5 mph86%30.42 "Hg10 mi
6:20 am23 °FClear.5 mph86%30.42 "Hg10 mi
5:50 am23 °FClear.3 mph93%30.42 "Hg10 mi
5:20 am23 °FClear.2 mph86%30.42 "Hg10 mi
9:50 pm
Fri, Jan 20
28 °FClear.2 mph74%30.48 "Hg10 mi
9:20 pm28 °FClear.2 mph69%30.51 "Hg10 mi
8:50 pm30 °FClear.3 mph69%30.51 "Hg10 mi
8:20 pm30 °FClear.3 mph69%30.51 "Hg10 mi
7:50 pm30 °FClear.5 mph69%30.51 "Hg10 mi
7:20 pm32 °FClear.5 mph64%30.51 "Hg10 mi
6:50 pm32 °FClear.5 mph64%30.51 "Hg10 mi
6:20 pm32 °FClear.5 mph60%30.51 "Hg10 mi
5:50 pm32 °FClear.3 mph60%30.51 "Hg10 mi
5:20 pm34 °FClear.5 mph56%30.51 "Hg10 mi
4:50 pm34 °FSunny.7 mph56%30.51 "Hg10 mi
4:20 pm36 °FSunny.6 mph48%30.51 "Hg10 mi
3:50 pm36 °FPassing clouds.6 mph48%30.51 "HgN/A
3:20 pm36 °FSunny.7 mph44%30.51 "Hg10 mi
2:50 pm36 °FPassing clouds.6 mph41%30.51 "HgN/A
2:20 pm36 °FSunny.6 mph41%30.51 "Hg10 mi
Weather by CustomWeather, © 2017

See weather overviewHow to use our weather pages